Location: Trebic
(49.2170°N, 15.8830°E)
Time: 13:21:46
(UTC+02:00)

Transit 2A Rocket - Pass Details

Date: 24 July 2019
Orbit: 590 x 913 km, 66.7° (Epoch: 20 August)

Event Time Altitude Azimuth Distance (km) Brightness Sun altitude
Rises 01:50:08 0° 159° (SSE) 3,516 - -20.0°
Reaches altitude 10° 01:53:49 10° 137° (SE) 2,552 - -19.9°
Exits shadow 01:54:20 11° 133° (SE) 2,453 7.3 -19.9°
Maximum altitude 01:56:57 15° 105° (ESE) 2,189 7.3 -19.8°
Drops below altitude 10° 02:00:02 10° 72° (ENE) 2,479 8.0 -19.7°
Sets 02:03:30 0° 50° (NE) 3,357 9.2 -19.5°
